• în Republica Moldova
  • Lista ţărilor
  • Pe 7 zile
  • Temperatura apei
  • Hartă satelitară
  • Meteo pe hartă
  • Widget-uri
  • user-avatar
    Intrare

    Meteo pe oră la Hobart

    Astăzi, 20 Februarie, Marţi

    Timp Temperatura Precipitaţii Vânt Presiune Umiditate
    00:00 +7°C° 0 mm 1 m/s 756 mmHg 96%
    01:00 +7°C° 0 mm 1 m/s 756 mmHg 97%
    02:00 +7°C° 0 mm 1 m/s 756 mmHg 97%
    03:00 +7°C° 0 mm 1 m/s 756 mmHg 97%
    04:00 +7°C° 0 mm 1 m/s 756 mmHg 96%
    05:00 +8°C° 0 mm 1 m/s 756 mmHg 92%
    06:00 +9°C° 0 mm 1 m/s 756 mmHg 88%
    07:00 +10°C° 0 mm 1 m/s 756 mmHg 84%
    08:00 +12°C° 0 mm 1 m/s 756 mmHg 73%
    09:00 +15°C° 0 mm 2 m/s 756 mmHg 61%
    10:00 +18°C° 0 mm 2 m/s 756 mmHg 51%
    11:00 +19°C° 0 mm 2 m/s 755 mmHg 46%
    12:00 +20°C° 0 mm 3 m/s 755 mmHg 42%
    13:00 +22°C° 0 mm 3 m/s 754 mmHg 38%
    14:00 +22°C° 0 mm 3 m/s 754 mmHg 39%
    15:00 +21°C° 0 mm 3 m/s 753 mmHg 41%
    16:00 +21°C° 0 mm 3 m/s 753 mmHg 43%
    17:00 +19°C° 0 mm 3 m/s 753 mmHg 51%
    18:00 +17°C° 0 mm 3 m/s 753 mmHg 59%
    19:00 +14°C° 0 mm 3 m/s 753 mmHg 68%
    20:00 +12°C° 0 mm 3 m/s 753 mmHg 76%
    21:00 +10°C° 0 mm 3 m/s 753 mmHg 84%
    22:00 +8°C° 0 mm 3 m/s 753 mmHg 93%
    23:00 +8°C° 0 mm 3 m/s 753 mmHg 94%

    Mâine, 21 Februarie, Miercuri

    Timp Temperatura Precipitaţii Vânt Presiune Umiditate
    00:00 +8°C° 0 mm 3 m/s 752 mmHg 94%
    01:00 +8°C° 0 mm 3 m/s 752 mmHg 95%
    02:00 +8°C° 0 mm 2 m/s 752 mmHg 95%
    03:00 +8°C° 0 mm 2 m/s 752 mmHg 94%
    04:00 +8°C° 0 mm 2 m/s 751 mmHg 93%
    05:00 +9°C° 0 mm 2 m/s 752 mmHg 89%
    06:00 +10°C° 0 mm 2 m/s 752 mmHg 85%
    07:00 +10°C° 0 mm 2 m/s 752 mmHg 80%
    08:00 +14°C° 0 mm 2 m/s 751 mmHg 70%
    09:00 +17°C° 0 mm 2 m/s 751 mmHg 59%
    10:00 +20°C° 0 mm 2 m/s 751 mmHg 49%
    11:00 +23°C° 0 mm 2 m/s 751 mmHg 43%
    12:00 +25°C° 0 mm 2 m/s 750 mmHg 36%
    13:00 +27°C° 0 mm 2 m/s 750 mmHg 30%
    14:00 +27°C° 0 mm 3 m/s 750 mmHg 31%
    15:00 +27°C° 0 mm 3 m/s 750 mmHg 31%
    16:00 +27°C° 0 mm 3 m/s 749 mmHg 31%
    17:00 +24°C° 0 mm 3 m/s 749 mmHg 42%
    18:00 +21°C° 0 mm 3 m/s 749 mmHg 53%
    19:00 +18°C° 0 mm 2 m/s 749 mmHg 63%
    20:00 +16°C° 0 mm 2 m/s 750 mmHg 72%
    21:00 +15°C° 0 mm 2 m/s 750 mmHg 82%
    22:00 +13°C° 0 mm 1 m/s 750 mmHg 91%
    23:00 +12°C° 0 mm 1 m/s 750 mmHg 92%

    Poimâine, 22 Februarie, Joi

    Timp Temperatura Precipitaţii Vânt Presiune Umiditate
    00:00 +12°C° 0 mm 1 m/s 750 mmHg 92%
    01:00 +12°C° 0 mm 1 m/s 750 mmHg 93%
    02:00 +12°C° 0 mm 1 m/s 750 mmHg 92%
    03:00 +11°C° 0 mm 1 m/s 750 mmHg 92%
    04:00 +11°C° 0 mm 1 m/s 749 mmHg 91%
    05:00 +12°C° 0 mm 1 m/s 750 mmHg 86%
    06:00 +13°C° 0 mm 1 m/s 750 mmHg 81%
    07:00 +14°C° 0 mm 1 m/s 750 mmHg 75%
    08:00 +19°C° 0 mm 1 m/s 750 mmHg 63%
    09:00 +23°C° 0 mm 1 m/s 750 mmHg 50%
    10:00 +27°C° 0 mm 1 m/s 750 mmHg 38%
    11:00 +28°C° 0 mm 2 m/s 750 mmHg 34%
    12:00 +29°C° 0 mm 2 m/s 749 mmHg 31%
    13:00 +30°C° 0 mm 3 m/s 749 mmHg 28%
    14:00 +30°C° 0 mm 3 m/s 749 mmHg 29%
    15:00 +29°C° 0 mm 3 m/s 748 mmHg 30%
    16:00 +29°C° 0 mm 4 m/s 748 mmHg 32%
    17:00 +27°C° 0 mm 3 m/s 748 mmHg 42%
    18:00 +24°C° 0 mm 3 m/s 748 mmHg 51%
    19:00 +21°C° 0 mm 2 m/s 748 mmHg 61%
    20:00 +19°C° 0 mm 2 m/s 749 mmHg 71%
    21:00 +17°C° 0 mm 2 m/s 749 mmHg 80%
    22:00 +15°C° 0 mm 2 m/s 749 mmHg 90%
    23:00 +15°C° 0 mm 2 m/s 748 mmHg 90%

    23 Februarie, Vineri

    Timp Temperatura Precipitaţii Vânt Presiune Umiditate
    00:00 +15°C° 0 mm 2 m/s 748 mmHg 89%
    01:00 +15°C° 0 mm 2 m/s 748 mmHg 89%
    02:00 +15°C° 0 mm 2 m/s 747 mmHg 89%
    03:00 +15°C° 0 mm 2 m/s 747 mmHg 89%
    04:00 +15°C° 0 mm 2 m/s 746 mmHg 89%
    05:00 +16°C° 0,1 mm 2 m/s 746 mmHg 87%
    06:00 +16°C° 0,1 mm 3 m/s 746 mmHg 84%
    07:00 +17°C° 0,1 mm 3 m/s 746 mmHg 82%
    08:00 +17°C° 0,8 mm 2 m/s 746 mmHg 84%
    09:00 +18°C° 0,8 mm 2 m/s 746 mmHg 85%
    10:00 +18°C° 0,8 mm 2 m/s 746 mmHg 87%
    11:00 +19°C° 0,7 mm 2 m/s 745 mmHg 88%
    12:00 +19°C° 0,7 mm 3 m/s 744 mmHg 89%
    13:00 +19°C° 0,7 mm 3 m/s 744 mmHg 90%
    14:00 +20°C° 0,4 mm 3 m/s 743 mmHg 88%
    15:00 +20°C° 0,4 mm 3 m/s 742 mmHg 86%
    16:00 +21°C° 0,4 mm 2 m/s 741 mmHg 84%
    17:00 +20°C° 0 mm 2 m/s 741 mmHg 85%
    18:00 +20°C° 0 mm 2 m/s 741 mmHg 87%
    19:00 +19°C° 0 mm 2 m/s 740 mmHg 89%
    20:00 +19°C° 0 mm 2 m/s 740 mmHg 90%
    21:00 +18°C° 0 mm 2 m/s 740 mmHg 92%
    22:00 +18°C° 0 mm 2 m/s 740 mmHg 93%
    23:00 +18°C° 0 mm 2 m/s 739 mmHg 94%

    24 Februarie, Sâmbătă

    Timp Temperatura Precipitaţii Vânt Presiune Umiditate
    00:00 +17°C° 0 mm 2 m/s 738 mmHg 95%
    01:00 +17°C° 0 mm 2 m/s 738 mmHg 96%
    02:00 +17°C° 0,2 mm 2 m/s 737 mmHg 96%
    03:00 +17°C° 0,2 mm 2 m/s 737 mmHg 96%
    04:00 +19°C° 0,2 mm 1 m/s 736 mmHg 96%
    05:00 +19°C° 1,6 mm 1 m/s 736 mmHg 97%
    06:00 +19°C° 1,6 mm 1 m/s 735 mmHg 97%
    07:00 +18°C° 1,6 mm 2 m/s 735 mmHg 97%
    08:00 +18°C° 1,6 mm 2 m/s 734 mmHg 97%
    09:00 +18°C° 1,6 mm 2 m/s 734 mmHg 96%
    10:00 +18°C° 1,6 mm 2 m/s 734 mmHg 95%
    11:00 +18°C° 0,9 mm 3 m/s 734 mmHg 90%
    12:00 +18°C° 0,9 mm 4 m/s 734 mmHg 86%
    13:00 +17°C° 0,9 mm 5 m/s 734 mmHg 81%
    14:00 +17°C° 0,1 mm 5 m/s 734 mmHg 79%
    15:00 +16°C° 0,1 mm 6 m/s 735 mmHg 78%
    16:00 +15°C° 0,1 mm 6 m/s 735 mmHg 76%
    17:00 +14°C° 0,2 mm 6 m/s 736 mmHg 80%
    18:00 +13°C° 0,2 mm 6 m/s 736 mmHg 84%
    19:00 +11°C° 0,2 mm 6 m/s 737 mmHg 88%
    20:00 +10°C° 0,2 mm 6 m/s 738 mmHg 89%
    21:00 +9°C° 0,2 mm 6 m/s 738 mmHg 90%
    22:00 +9°C° 0,2 mm 6 m/s 739 mmHg 90%
    23:00 +8°C° 0,2 mm 6 m/s 739 mmHg 90%

    25 Februarie, Duminică

    Timp Temperatura Precipitaţii Vânt Presiune Umiditate
    00:00 +8°C° 0,2 mm 7 m/s 740 mmHg 90%
    01:00 +8°C° 0,2 mm 7 m/s 741 mmHg 90%
    02:00 +6°C° 0,2 mm 7 m/s 741 mmHg 89%
    03:00 +6°C° 0,2 mm 7 m/s 742 mmHg 89%
    04:00 +5°C° 0,2 mm 7 m/s 742 mmHg 89%
    05:00 +5°C° 0,1 mm 7 m/s 743 mmHg 87%
    06:00 +5°C° 0,1 mm 7 m/s 744 mmHg 86%
    07:00 +6°C° 0,1 mm 7 m/s 745 mmHg 85%
    08:00 +8°C° 0,1 mm 7 m/s 746 mmHg 76%
    09:00 +9°C° 0,1 mm 7 m/s 747 mmHg 68%
    10:00 +10°C° 0,1 mm 7 m/s 748 mmHg 59%
    11:00 +11°C° 0 mm 7 m/s 748 mmHg 56%
    12:00 +13°C° 0 mm 6 m/s 748 mmHg 53%
    13:00 +14°C° 0 mm 6 m/s 749 mmHg 50%
    14:00 +14°C° 0 mm 6 m/s 749 mmHg 49%
    15:00 +14°C° 0 mm 5 m/s 749 mmHg 49%
    16:00 +15°C° 0 mm 5 m/s 750 mmHg 48%
    17:00 +13°C° 0 mm 5 m/s 750 mmHg 55%
    18:00 +12°C° 0 mm 4 m/s 751 mmHg 62%
    19:00 +10°C° 0 mm 4 m/s 752 mmHg 70%
    20:00 +9°C° 0 mm 3 m/s 752 mmHg 76%
    21:00 +8°C° 0 mm 3 m/s 753 mmHg 83%
    22:00 +6°C° 0 mm 2 m/s 753 mmHg 90%
    23:00 +6°C° 0 mm 2 m/s 753 mmHg 92%
    Arată mai mult